Regional Weather Roundup
Issued by NWS

Home | Current Version | Previous Version | Text Only | Print | Product List | Glossary Off
Versions: 1 2 3 4 5 6 7 8 9 10 11 12 13 14 15 16 17 18 19 20 21 22 23 24 25 26 27 28 29 30 31 32 33 34 35 36 37 38 39 40 41 42 43 44 45 46 47 48 49 50

000
ASUS45 KCYS 161710
RWRWY

WYOMING REGIONAL WEATHER ROUNDUP
NATIONAL WEATHER SERVICE CHEYENNE WY
1100 AM MDT TUE SEP 16 2014

NOTE:  "FAIR" INDICATES FEW OR NO CLOUDS BELOW 12,000 FEET
WITH NO SIGNIFICANT WEATHER AND/OR OBSTRUCTIONS TO VISIBILITY.

WYZ001-161800-
YELLOWSTONE NATIONAL PARK

CITY           SKY/WX    TMP DP  RH WIND       PRES   REMARKS
LK YELLOWSTONE   N/A     54  39  57 CALM      30.35S
W YELLOWSTONE  NOT AVBL

$$
WYZ002>013-054>058-071-098>099-161800-
NORTHERN WYOMING

CITY           SKY/WX    TMP DP  RH WIND       PRES   REMARKS
JACKSON        SUNNY     54  36  50 CALM      30.29F
CODY           MOSUNNY   72  39  30 SE5       30.11S
GREYBULL       SUNNY     65  44  46 VRB5      30.08F
WORLAND        MOSUNNY   65  44  46 W3        30.09F
SHERIDAN       PTSUNNY   75  43  31 NE3       30.04F
BUFFALO        MOSUNNY   75  37  25 CALM      30.11S
GILLETTE       MOSUNNY   76  42  29 SW8       30.07F
HULETT         FAIR      70  45  40 MISG      30.08
NEWCASTLE      FAIR      68  43  40 S3        30.09

$$
WYZ014>020-022>026-101>103-161800-
CENTRAL WYOMING

CITY           SKY/WX    TMP DP  RH WIND       PRES   REMARKS
BIG PINEY      SUNNY     63  30  28 VRB3      30.32F
PINEDALE       SUNNY     64  32  29 E3        30.33S
DUBOIS         FAIR      68  32  26 CALM      30.27F
LANDER         SUNNY     68  33  27 VRB3      30.17F
RIVERTON       SUNNY     66  39  37 NE3       30.18F
CASPER         MOSUNNY   75  35  23 SW10      30.17F
DOUGLAS        MOSUNNY   75  41  29 NW5       30.14F

$$
WYZ021-027>030-104>119-161800-
SOUTHERN WYOMING

CITY           SKY/WX    TMP DP  RH WIND       PRES   REMARKS
EVANSTON       SUNNY     70  37  29 SW8       30.31S
KEMMERER       PTSUNNY   64  32  29 CALM      30.33S
FORT BRIDGER   FAIR      67  36  31 CALM      30.33S
ROCK SPRINGS   MOSUNNY   69  34  27 VRB5      30.29F
DIXON          FAIR      68  41  37 CALM      30.32F
RAWLINS        SUNNY     72  28  19 W9        30.29F
SARATOGA       FAIR      70  34  26 CALM      30.32F
LARAMIE        SUNNY     71  30  21 NW15      30.30S
CHEYENNE       SUNNY     76  28  17 NW17G26   30.21F
TORRINGTON     SUNNY     72  51  47 NW6       30.08F
PINE BLUFFS    FAIR      77  37  24 NW15      30.15F

$$



USA.gov is the U.S. government's official web portal to all federal, state and local government web resources and services.